Regional Weather Roundup
Issued by NWS

Home | Current Version | Previous Version | Text Only | Print | Product List | Glossary On
Versions: 1 2 3 4 5 6 7 8 9 10 11 12 13 14 15 16 17 18 19 20 21 22 23 24 25 26 27 28 29 30 31 32 33 34 35 36 37 38 39 40 41 42 43 44 45 46 47 48 49 50
000
ASUS45 KBOI 261610
RWRID

IDAHO REGIONAL WEATHER ROUNDUP
NATIONAL WEATHER SERVICE BOISE ID
1000 AM MDT TUE MAY 26 2015

NOTE: "FAIR" INDICATES FEW OR NO CLOUDS BELOW 12000 FEET
WITH NO SIGNIFICANT WEATHER AND/OR OBSTRUCTIONS TO VISIBILITY

IDZ012-014-261700-
SOUTHWEST IDAHO


CITY           SKY/WX    TMP DP  RH WIND       PRES   REMARKS
BOISE          SUNNY     63  49  60 CALM      29.96S
CALDWELL       SUNNY     63  45  51 CALM      29.97S
$$

IDZ016-017-261700-
SOUTHCENTRAL IDAHO


CITY           SKY/WX    TMP DP  RH WIND       PRES   REMARKS
BURLEY         CLOUDY    59  47  64 CALM      30.00R
JEROME         CLOUDY    57  48  72 S3        30.01R
TWIN FALLS     PTSUNNY   63  47  55 S6        29.98S
$$

IDZ019>023-261700-
SOUTHEAST IDAHO


CITY           SKY/WX    TMP DP  RH WIND       PRES   REMARKS
IDAHO FALLS    PTSUNNY   59  48  67 SW10      30.02S
POCATELLO      PTSUNNY   59  52  77 NW7       30.02S
REXBURG        CLOUDY    54  46  74 SW8       30.02S
$$

IDZ006-010-011-018-031-032-261700-
CENTRAL IDAHO MOUNTAINS


CITY           SKY/WX    TMP DP  RH WIND       PRES   REMARKS
MCCALL         SUNNY     52  45  77 SW5       29.99F
HAILEY         MOSUNNY   55  45  67 SE7       30.04S
STANLEY          N/A     42  39  89 VRB5      30.08F
SALMON         CLOUDY    54  46  76 N3        30.01F
CHALLIS        SUNNY     55  43  63 CALM      30.01F
$$

IDZ002-004-006-007-026-261700-
NORTHERN IDAHO


CITY           SKY/WX    TMP DP  RH WIND       PRES   REMARKS
LEWISTON       PTSUNNY   64  53  67 S7        29.96S
LOWELL           N/A     57  50  77 CALM      29.99F
COEUR D`ALENE  PTSUNNY   57  46  67 SE5       29.98R
MULLAN PASS    CLOUDY    42  41  96 VRB3      30.02S
$$


USA.gov is the U.S. government's official web portal to all federal, state and local government web resources and services.